Weather History for Bogalusa, LA

Change the Weather History Date:

Tuesday, February 5, 2013

  Actual Average Record
Temperature  
Mean Temperature 66 °F -  
Max Temperature 69 °F 60 °F 69 °F (2013)
Min Temperature 62 °F 37 °F 37 °F (2014)
Cooling Degree Days 1    
Growing Degree Days 16 (Base 50)    
Moisture  
Dew Point 57 °F    
Average Humidity 68    
Maximum Humidity 100    
Minimum Humidity 59    
Precipitation  
Precipitation 0.00 in - - ()
Sea Level Pressure  
Sea Level Pressure 30.00 in    
Wind  
Wind Speed 1 mph (ENE)    
Max Wind Speed 6 mph    
Max Gust Speed -    
Visibility 7 miles    
Events Fog    
Averages and records for this station are not official NWS values.
T = Trace of Precipitation, MM = Missing Value Source: NWS Daily Summary

Daily Weather History Graph

Daily Weather History Graph

Search for Another Location

Airport:

Trip Planner

Search our weather history database for the weather conditions in past years. The results will help you decide how hot, cold, wet, or windy it might be!

Date:

Astronomy

Feb. 05, 2013 Rise Set
Actual Time 6:48 AM CST 5:39 PM CST
Civil Twilight 6:23 AM CST 6:04 PM CST
Nautical Twilight 5:54 AM CST 6:32 PM CST
Astronomical Twilight 5:26 AM CST 7:01 PM CST
Moon 2:23 AM CST (2/5) 1:04 PM CST (2/5)
Length of Visible Light 11h 41m
Length of Day
10h 50m
Waning Crescent, 26% of the Moon is Illuminated
Feb 5
Waning Crescent
Feb 10
New
Feb 17
First Quarter
Feb 25
Full
Mar 4
Last Quarter

Hourly Weather History & Observations

Time (CST) Temp. Dew Point Humidity Pressure Visibility Wind Dir Wind Speed Gust Speed Precip Events Conditions
12:15 AM - - N/A% 29.98 in 10.0 mi Calm Calm - N/A   Unknown
12:35 AM - - N/A% 29.98 in 10.0 mi Calm Calm - N/A   Unknown
12:55 AM - - N/A% 29.97 in 10.0 mi Calm Calm - N/A   Unknown
1:15 AM - - N/A% 29.97 in 10.0 mi Calm Calm - N/A   Unknown
1:35 AM - - N/A% 29.97 in 10.0 mi North 4.6 mph - N/A   Unknown
1:55 AM - - N/A% 29.97 in 10.0 mi Calm Calm - N/A   Unknown
2:15 AM - - N/A% 29.96 in 10.0 mi East 3.5 mph - N/A   Unknown
2:35 AM - - N/A% 29.96 in 10.0 mi Calm Calm - N/A   Unknown
2:55 AM - - N/A% 29.96 in 10.0 mi Calm Calm - N/A   Unknown
3:15 AM - - N/A% 29.96 in 10.0 mi Calm Calm - N/A   Unknown
3:35 AM - - N/A% 29.96 in 10.0 mi Calm Calm - N/A   Unknown
3:55 AM - - N/A% 29.95 in 7.0 mi Calm Calm - N/A   Unknown
4:15 AM - - N/A% 29.96 in 7.0 mi Calm Calm - N/A   Unknown
4:35 AM - - N/A% 29.96 in 0.5 mi Calm Calm - N/A Fog Fog
4:55 AM - - N/A% 29.96 in 0.2 mi Calm Calm - N/A Fog Fog
5:15 AM - - N/A% 29.96 in 0.2 mi Calm Calm - N/A Fog Fog
5:35 AM - - N/A% 29.97 in 0.2 mi Calm Calm - N/A Fog Fog
5:55 AM - - N/A% 29.98 in 0.5 mi Calm Calm - N/A Fog Fog
6:15 AM - - N/A% 29.99 in 0.5 mi Calm Calm - N/A Fog Fog
6:35 AM - - N/A% 29.99 in 0.5 mi Calm Calm - N/A Fog Fog
6:55 AM - - N/A% 30.00 in 2.0 mi Calm Calm - N/A   Mist
7:15 AM - - N/A% 30.00 in 0.5 mi Calm Calm - N/A Fog Fog
7:35 AM - - N/A% 30.00 in 0.2 mi Calm Calm - N/A Fog Fog
7:55 AM - - N/A% 30.02 in 0.2 mi NNE 4.6 mph - N/A Fog Fog
8:15 AM - - N/A% 30.02 in 0.5 mi NNE 4.6 mph - N/A Fog Fog
8:35 AM - - N/A% 30.02 in 2.5 mi NE 5.8 mph - N/A   Mist
8:55 AM - - N/A% 30.03 in 10.0 mi ENE 4.6 mph - N/A   Unknown
9:15 AM - - N/A% 30.03 in 10.0 mi ENE 3.5 mph - N/A   Unknown
9:35 AM - - N/A% 30.04 in 10.0 mi East 3.5 mph - N/A   Unknown
9:55 AM - - N/A% 30.04 in 10.0 mi Calm Calm - N/A   Unknown
10:15 AM - - N/A% 30.04 in 10.0 mi East 4.6 mph - N/A   Unknown
10:35 AM 63.1 °F 57.6 °F 82% 30.05 in 10.0 mi ESE 4.6 mph - N/A   Unknown
10:55 AM 64.4 °F 59.2 °F 83% 30.04 in 10.0 mi Calm Calm - N/A   Unknown
11:15 AM 66.4 °F 56.3 °F 70% 30.03 in 10.0 mi Calm Calm - N/A   Unknown
11:35 AM 67.5 °F 56.1 °F 67% 30.03 in 10.0 mi Calm Calm - N/A   Unknown
11:55 AM 68.9 °F 55.9 °F 63% 30.02 in 10.0 mi Calm Calm - N/A   Unknown
12:15 PM 68.2 °F 55.6 °F 64% 30.01 in 10.0 mi SSE 3.5 mph - N/A   Unknown
12:35 PM 68.2 °F 55.6 °F 64% 30.01 in 10.0 mi Calm Calm - N/A   Unknown
1:15 PM 69.3 °F 56.1 °F 63% 30.00 in 10.0 mi Calm Calm - N/A   Unknown
1:35 PM 68.5 °F 55.8 °F 64% 29.99 in 10.0 mi SSW 3.5 mph - N/A   Unknown
1:55 PM 68.9 °F 56.1 °F 64% 29.99 in 10.0 mi SSW 4.6 mph - N/A   Unknown
2:15 PM 68.5 °F 56.3 °F 65% 29.99 in 10.0 mi Calm Calm - N/A   Unknown
2:35 PM 68.9 °F 56.1 °F 64% 29.98 in 10.0 mi Calm Calm - N/A   Unknown
2:55 PM 69.3 °F 55.6 °F 62% 29.98 in 10.0 mi WNW 3.5 mph - N/A   Unknown
3:15 PM 69.6 °F 56.1 °F 62% 29.98 in 10.0 mi Calm Calm - N/A   Unknown
3:35 PM 69.8 °F 54.9 °F 59% 29.98 in 10.0 mi Calm Calm - N/A   Unknown
3:55 PM 69.8 °F 55.6 °F 61% 29.98 in 10.0 mi Calm Calm - N/A   Overcast
4:15 PM 69.3 °F 54.9 °F 60% 29.98 in 10.0 mi Calm Calm - N/A   Overcast
4:35 PM 68.9 °F 56.1 °F 64% 29.98 in 10.0 mi Calm Calm - N/A   Overcast
5:15 PM 67.3 °F 58.1 °F 72% 29.98 in 10.0 mi Calm Calm - N/A   Overcast
5:35 PM 66.0 °F 58.6 °F 77% 29.98 in 10.0 mi WSW 3.5 mph - N/A   Overcast
5:55 PM 64.9 °F 57.4 °F 76% 29.98 in 10.0 mi Calm Calm - N/A   Mostly Cloudy
6:15 PM 62.4 °F 62.4 °F 100% 29.99 in 10.0 mi Calm Calm - N/A   Clear
6:35 PM - - N/A% 29.99 in 10.0 mi Calm Calm - N/A   Clear
6:55 PM - - N/A% 30.00 in 10.0 mi Calm Calm - N/A   Clear
7:15 PM - - N/A% 30.01 in 10.0 mi Calm Calm - N/A   Unknown
8:15 PM - - N/A% 30.03 in 10.0 mi Calm Calm - N/A   Unknown
8:35 PM - - N/A% 30.03 in 10.0 mi Calm Calm - N/A   Unknown
8:55 PM - - N/A% 30.04 in 3.0 mi Calm Calm - N/A   Mist
9:15 PM - - N/A% 30.04 in 10.0 mi Calm Calm - N/A   Unknown
9:35 PM - - N/A% 30.04 in 0.2 mi Calm Calm - N/A Fog Fog
9:55 PM - - N/A% 30.04 in 1.0 mi Calm Calm - N/A   Mist
10:15 PM - - N/A% 30.05 in 4.0 mi Calm Calm - N/A   Haze
10:35 PM - - N/A% 30.05 in 4.0 mi Calm Calm - N/A   Haze
10:55 PM - - N/A% 30.05 in 1.2 mi Calm Calm - N/A   Mostly Cloudy
11:15 PM - - N/A% 30.06 in 0.2 mi Calm Calm - N/A Fog Fog
11:35 PM - - N/A% 30.06 in 0.2 mi Calm Calm - N/A Fog Fog
11:55 PM - - N/A% 30.06 in 0.5 mi Calm Calm - N/A Fog Fog